GOES 16 (41866 NORAD) Tracking and Keplerian Element Data

This shows tracking and keplerian element data for the satellite.

Feedback or suggestion? Click here.




ElementValue
Catalog41866
NameGOES 16
Epoch Orbit764
Epoch Day350.97110492
Epoch Year2018
RAAN146.4834
Inclination0.0461
Eccentricity5.63E-05
Argument of Perigee143.1949
Mean Anonmoly70.3321
Mean Motion1.00270344
Decay Rate-2.33E-06
L11 41866U 16071A 18350.97110492 -.00000233 00000-0 00000+0 0 9998
L22 41866 0.0461 146.4834 0000563 143.1949 70.3321 1.00270344 7647

Live tracking and technical data element details for GOES 16 (NORAD 41866). GOES 16 can be tracked NOW for your location showing map with azimuth and elevation plus other details from your city location.

Track the satellite on the map from your city or location and see movement details for azimuth, elevation, latitude, longitude, range, height, and movement on the map or in text.







IsCatalogInMostPopularTable: catalog: 41866, numindb: 108
Update: records affected: 1



GetName: 41866 GOES 16

Hit Count: updated at: Tue, 18 Dec 2018 21:22:45 GMT